Gaylord, MI

2:02 PM EDT on September 25, 2016 (GMT -0400)
Otsego County

Weather History for KGLR - November, 2012

Change the Weather History Date:

Saturday, November 10, 2012

  Actual Average Record
Temperature  
Mean Temperature 44 °F -  
Max Temperature 48 °F 42 °F 61 °F (1964)
Min Temperature 41 °F 29 °F 10 °F (1956)
Degree Days  
Heating Degree Days 22    
Moisture  
Dew Point 42 °F    
Average Humidity 93    
Maximum Humidity 100    
Minimum Humidity 81    
Precipitation  
Precipitation 0.29 in - - ()
Sea Level Pressure  
Sea Level Pressure 30.05 in    
Wind  
Wind Speed 7 mph (ESE)    
Max Wind Speed 16 mph    
Max Gust Speed 24 mph    
Visibility 3 miles    
Events Rain    
Averages and records for this station are not official NWS values.
T = Trace of Precipitation, MM = Missing Value Source: NWS Daily Summary

Daily Weather History Graph

Daily Weather History Graph

Search for Another Location

Airport or City:

Trip Planner

Search our weather history database for the weather conditions in past years. The results will help you decide how hot, cold, wet, or windy it might be!

Date:

Astronomy

Nov. 10, 2012 Rise Set
Actual Time 7:30 AM EST 5:14 PM EST
Civil Twilight 6:58 AM EST 5:46 PM EST
Nautical Twilight 6:23 AM EST 6:21 PM EST
Astronomical Twilight 5:49 AM EST 6:55 PM EST
Moon 3:25 AM EST (11/10) 3:08 PM EST (11/10)
Length of Visible Light 10h 47m
Length of Day
9h 44m
Waning Crescent, 14% of the Moon is Illuminated
Nov 10
Waning Crescent
Nov 13
New
Nov 20
First Quarter
Nov 28
Full
Dec 6
Last Quarter

Hourly Weather History & Observations

Time (EST) Temp. Windchill Dew Point Humidity Pressure Visibility Wind Dir Wind Speed Gust Speed Precip Events Conditions
12:35 AM 42.8 °F 41.1 °F 39.2 °F 87% 30.13 in 9.0 mi ENE 3.5 mph - N/A   Overcast
12:53 AM 42.1 °F 40.2 °F 39.0 °F 89% 30.15 in 9.0 mi East 3.5 mph - N/A   Overcast
1:53 AM 42.1 °F - 39.0 °F 89% 30.15 in 7.0 mi Calm Calm - N/A   Overcast
2:53 AM 41.0 °F 39.0 °F 39.0 °F 93% 30.16 in 7.0 mi ENE 3.5 mph - N/A   Overcast
3:53 AM 41.0 °F 39.0 °F 39.0 °F 93% 30.16 in 6.0 mi ENE 3.5 mph - N/A   Overcast
4:53 AM 41.0 °F 38.0 °F 39.0 °F 93% 30.16 in 5.0 mi East 4.6 mph - N/A   Overcast
5:53 AM 41.0 °F 38.0 °F 37.9 °F 89% 30.15 in 6.0 mi East 4.6 mph - N/A   Overcast
6:11 AM 42.8 °F 38.6 °F 37.4 °F 81% 30.12 in 6.0 mi East 6.9 mph - N/A   Overcast
6:53 AM 42.1 °F 37.1 °F 37.9 °F 85% 30.15 in 5.0 mi East 8.1 mph - N/A   Overcast
7:53 AM 42.1 °F 36.6 °F 39.0 °F 89% 30.14 in 5.0 mi ESE 9.2 mph 16.1 mph N/A   Overcast
8:10 AM 42.8 °F 37.5 °F 39.2 °F 87% 30.10 in 4.0 mi East 9.2 mph 17.3 mph N/A   Overcast
8:53 AM 42.1 °F 37.1 °F 39.9 °F 92% 30.13 in 1.8 mi ESE 8.1 mph - 0.01 in Rain Light Rain
9:08 AM 42.8 °F 36.2 °F 41.0 °F 93% 30.12 in 2.5 mi SE 12.7 mph - 0.02 in Rain Rain
9:48 AM 42.8 °F 40.1 °F 41.0 °F 93% 30.11 in 1.8 mi Variable 4.6 mph - 0.11 in Rain Rain
9:53 AM 42.1 °F 38.4 °F 41.0 °F 96% 30.14 in 2.0 mi Variable 5.8 mph - 0.12 in Rain Light Rain
10:29 AM 42.8 °F 37.0 °F 41.0 °F 93% 30.10 in 1.8 mi ESE 10.4 mph 16.1 mph 0.08 in Rain Rain
10:38 AM 42.8 °F 37.5 °F 41.0 °F 93% 30.10 in 2.5 mi ESE 9.2 mph - 0.09 in Rain Light Rain
10:53 AM 42.1 °F 36.1 °F 41.0 °F 96% 30.13 in 4.0 mi ESE 10.4 mph 17.3 mph 0.10 in Rain Light Rain
11:50 AM 42.8 °F 37.0 °F 41.0 °F 93% 30.08 in 2.5 mi ESE 10.4 mph 18.4 mph 0.02 in Rain Light Rain
11:53 AM 42.1 °F 35.2 °F 41.0 °F 96% 30.11 in 2.5 mi ESE 12.7 mph 20.7 mph 0.02 in Rain Light Rain
12:34 PM 42.8 °F 35.1 °F 41.0 °F 93% 30.05 in 3.0 mi ESE 16.1 mph 23.0 mph 0.01 in   Overcast
12:43 PM 42.8 °F 37.5 °F 41.0 °F 93% 30.05 in 2.5 mi ESE 9.2 mph 23.0 mph 0.01 in Rain Light Rain
12:53 PM 42.1 °F 35.2 °F 41.0 °F 96% 30.06 in 1.8 mi ESE 12.7 mph 24.2 mph 0.02 in Rain Light Rain
1:01 PM 42.8 °F 36.6 °F 41.0 °F 93% 30.03 in 2.0 mi ESE 11.5 mph 19.6 mph 0.00 in Rain Light Rain
1:17 PM 42.8 °F 37.0 °F 41.0 °F 93% 30.02 in 1.8 mi ESE 10.4 mph 18.4 mph 0.00 in Rain Light Rain
1:53 PM 43.0 °F 36.4 °F 42.1 °F 97% 30.03 in 1.8 mi ESE 12.7 mph 18.4 mph 0.00 in   Overcast
2:53 PM 43.0 °F 36.8 °F 42.1 °F 97% 30.01 in 1.5 mi ESE 11.5 mph 19.6 mph 0.01 in   Overcast
3:53 PM 44.1 °F 39.0 °F 43.0 °F 96% 30.00 in 1.2 mi ESE 9.2 mph - N/A   Overcast
4:41 PM 44.6 °F 40.2 °F 42.8 °F 93% 29.96 in 2.0 mi ESE 8.1 mph 17.3 mph 0.00 in   Overcast
4:53 PM 44.1 °F 37.7 °F 43.0 °F 96% 29.99 in 1.8 mi SE 12.7 mph 18.4 mph 0.00 in   Overcast
5:53 PM 45.0 °F 39.3 °F 44.1 °F 97% 29.97 in 1.8 mi SE 11.5 mph - 0.00 in   Overcast
6:19 PM 44.6 °F 38.8 °F 44.6 °F 100% 29.95 in 2.0 mi SE 11.5 mph 18.4 mph 0.00 in Rain Light Rain
6:53 PM 46.0 °F 40.6 °F 45.0 °F 96% 29.96 in 2.5 mi SE 11.5 mph 16.1 mph 0.01 in   Overcast
7:04 PM 46.4 °F 41.9 °F 44.6 °F 93% 29.93 in 2.5 mi SE 9.2 mph - N/A   Overcast
7:53 PM 46.0 °F 41.0 °F 45.0 °F 96% 29.96 in 2.5 mi SSE 10.4 mph - N/A   Overcast
8:38 PM 46.4 °F 41.1 °F 44.6 °F 93% 29.94 in 3.0 mi South 11.5 mph - N/A   Mostly Cloudy
8:46 PM 46.4 °F 42.4 °F 44.6 °F 93% 29.93 in 3.0 mi South 8.1 mph - N/A   Scattered Clouds
8:53 PM 46.0 °F 41.0 °F 45.0 °F 96% 29.96 in 3.0 mi South 10.4 mph 18.4 mph N/A   Partly Cloudy
9:30 PM 44.6 °F 40.2 °F 44.6 °F 100% 29.91 in 2.5 mi SSE 8.1 mph - N/A   Clear
9:44 PM 44.6 °F 40.7 °F 44.6 °F 100% 29.91 in 3.0 mi SSE 6.9 mph - N/A   Clear
9:53 PM 45.0 °F 41.8 °F 44.1 °F 97% 29.94 in 3.0 mi South 5.8 mph - N/A   Clear
11:53 PM 48.0 °F - 46.0 °F 93% 29.91 in 6.0 mi South 8.1 mph - N/A   Clear